Погода в Дашогузе

Погода в Дашогузе : погода сейчас, прогноз погоды и архив. Всё, что Вы хотите узнать о погоде в Дашогузе!

Поиск расширенной информации на нашем сайте:

Другие новости

Новости СМИ2

Главная страница сайта

Новости сайта

02.10.2013

Напоминаем, что на нашем новом сайте вы можете получить высокодетализированные прогнозы погоды по пунктам России, СНГ и мира (включающие важные для авиации метеовеличины, такие как направление и скорость ветра, видимость, явления погоды, количество и форма облачности, нижняя и верхняя граница облачности), а также ознакомиться с разнообразными материалами по авиационной метеорологии и подборкой полезных ссылок на эту тему.

Сайт Метеоцентр.Азия посвящён разработке технологий оптимизации авиаметеорологического обслуживания, включая проектирование и перспективное создание нескольких автоматизированных авиаметеорологических систем:
- система выпуска высокодетальных прогностических карт явлений погоды для нижнего воздушного пространства по России и ближнему зарубежью;
- система верификации прогнозов TAF (выпускаемых синоптиками официальных АМСГ РФ и ближнего зарубежья) и AUTOTAF (выпускаемых сайтом Метеоцентр.Азия) - выявление ошибок, онлайн-сопоставление с фактической погодой METAR, автоматическое внесение коррективов в прогнозы при резком отклонении фактической погоды от прогноза, подсчёт оправдываемости прогнозов по элементам и в целом;
- система обработки, анализа и отображения авиаметеорологической информации для применения провайдерами метеорологической информации.


Погода в Дашогузе - сегодня

Время (UTC), дата Ветер
(°,м/с) 
Видим.   Явления Облачность Т
(°С)
Тd
(°С)
f(%) Тe
(°С)
Pmin
(гПа)
dP
(гПа)
Po
(мм)
O2
(г/м3)
Тmin Tmax R s Состояние
почвы
12 21.01.17 310 (СЗ) 10 км    9/9 480 м 
[Sc]
-1.7 -5.1 78 -4  1024.5  -0.8  761  309           
15 21.01.17 300 (СЗ) 10 км    9/9 1000 м 
[Sc]
-2.7 -5.7 80 -4  1024.7  0.3  761  310    -1.6       
18 21.01.17 040 (СВ) 10 км    9/9 1260 м 
[Sc]
-4 -6.2 85 -5  1024.5  -0.2  761  312    -1.6       
21 21.01.17 160 (Ю) 10 км    9/9 1350 м 
[Sc]
-3.1 -5.5 83 -4  1023.5  -1  760  310           
00 22.01.17 170 (Ю) 10 км    9/9 1320 м 
[Sc]
-2.2 -4.7 83 -3  1022.6  -1  759  309           
03 22.01.17 нст () 4000 м  дымка  8/5 1500 м средняя 
[Sc|Ac trans]
-3 -4.3 91 -4  1022  -0.5  759  310           
06 22.01.17 230 (ЮЗ) 10 км    9/9 1500 м 
[Sc]
+0.2 -3.1 78 -1  1022  -0.1  759  306  -4.2         
09 22.01.17 250 (З) 10 км    9/6 1320 м средняя 
[Sc|Ac trans]
+5 -0.3 69 +3  1019.7  -2.1  757  300           
12 22.01.17 270 (З) 10 км  {дождь}  9/9 1380 м 
[Sc]
+5.1 +0.1 70 +4  1019.6  -0.3  757  299           
15 22.01.17 260 (З) 10 км    9/0 средняя 
[Ac trans]
+3.1 -0.4 78 +1  1020.2  0.6  758  302    +5.7  0.0     
18 22.01.17 270 (З) 10 км    9/9 420 м 
[Sc]
+2.5 -0.2 82 -1  1021.7  1.5  759  303    +5.7       
21 22.01.17 320 (СЗ) 10 км    9/9 1470 м 
[Sc]
+0.3 -4.4 71 -3  1024.2  2.5  761  307           
00 23.01.17 030 (СВ) 10 км    9/9 720 м 
[Sc]
-3 -6.8 75 -7  1027.2  3.1  763  312           
03 23.01.17 280 (З) 10 км    4/0 верхняя 
[Ci fib]
-7.4 -10 82 -11  1028.7  1.4  764  317           
06 23.01.17 270 (З) 10 км    ясно 
-4.2 -9.2 68 -8  1030.3  1.6  765  314  -7.4         
09 23.01.17 260 (З) 10 км    ясно 
-0.3 -10 48 -4  1029.5  -0.8  764  309           
12 23.01.17 260 (З) 10 км    3/0 верхняя 
[Ci fib]
+0.6 -10 45 -4  1028.5  -1.1  764  308           
15 23.01.17 210 (ЮЗ) 10 км    3/0 средняя 
[Ac trans]
-3.4 -11.3 54 -6  1028.6  0.2  764  313    +1       
18 23.01.17 210 (ЮЗ) 10 км    9/9 900 м 
[Sc]
-0.7 -11.2 45 -4  1028.6  -0.1  764  310    +1       
21 23.01.17 250 (З) 10 км  слаб. снег  10/10 400 м 
[Ns]
-0.4 -3.8 78 -4  1028.8  0.2  764  309           
00 24.01.17 230 (ЮЗ) 10 км  слаб. снег  10/10 180 м 
[Ns]
-0.9 -1.3 97 -4  1029.2  0.5  764  309           
03 24.01.17 250 (З) 10 км  в посл. час снег  10/10 300 м 
[St]
+0.2 -0.9 92 -3  1030.4  1.1  765  308      0.9  равномерный
сухой снег
100% 
06 24.01.17 320 (СЗ) 10 км  {снег}  9/9 300 м 
[Frnb]
-1.3 -3.2 87 -3  1033.5  3.2  767  311  -0.9    0.9     
09 24.01.17 280 (З) 10 км    4/4 600 м 
[Cu hum]
+0.7 -6.6 58 -2  1033.5  -0.1  767  309           
12 24.01.17 290 (З) 10 км    4/4 1500 м 
[Cu Sc]
+1.7 -6.4 55 1033.2  -0.3  767  308           
Время (UTC), дата Ветер
(°,м/с) 
Видим.   Явления Облачность Т
(°С)
Тd
(°С)
f(%) Тe
(°С)
Pmin
(гПа)
dP
(гПа)
Po
(мм)
O2
(г/м3)
Тmin Tmax R s Состояние
почвы

Для получения пояснительной информации подведите курсор к названию столбца.

ПОГОДА в Дашогузе - архив

Всё, что Вы хотите узнать о погоде в Дашогузе - удобно и подробно!

Выберите нужную дату (начиная с 1 января 2015* года) и нажмите кнопку "Найти".
Будут отображены архивные сводки погоды по пункту Дашогуз, начиная с указанной даты.


Отображать данные в формате CSV (для использования в таблицах Excel)


Внимание! Наш архив погоды предназначен исключительно для личного некоммерческого использования в познавательных целях. Если Вам необходимы официальные справки о состоянии погоды (для производственных, юридических, коммерческих и т.п. целей), обращайтесь в органы Росгидромета.

*Примечание: данная дата относится к архиву по метеостанциям СССР (Россия, СНГ, Балтия).
Архив по метеостанциям Зарубежной Европы и Азии (кроме Китая) хранится 10 дней, по другим регионам земного шара (Китай, Африка, Америка, Австралия, Океания) - 1 день.

Дашогуз - район местоположения метеостанции


Название, широта, долгота, высота метеостанции:
Дашогуз (Ташауз) 41.8°ш. 59.8°д. 82 м над ур. моря [Туркменистан]

Дополнительная информация

В oтличие oт бoльшинства пoгoдных сайтoв мы публикуем пoдрoбную метеoинфoрмацию в детальнoм прoфессиoнальнoм фoрмате.

Характеристики температуры и влажнoсти вoздуха измеряются на высoте 2 м в тени вдали oт зданий и деревьев.
Скoрoсть ветра измеряется на высoте 10 м (на урoвне рoста челoвека скoрoсть ветра ниже в 1.5-2 раза). Если метеoстанция нахoдится в гoрoде или в лесу, тo скoрoсть ветра занижена на 2-4 м/с пo сравнению с oткрытым местoм. Скoрoсть ветра над акватoриями крупных рек и oзёр, а также на вершинах хoлмoв на 2-5 м/с выше, чем в oбычных услoвиях.
Атмoсфернoе давление в разных тoчках местнoсти мoжет значительнo oтличаться oт давления на метеoстанции, в зависимoсти oт услoвий рельефа (при пoдъёме на 10 м давление пoнижается примернo на 1 мм рт.ст.).